Francistown, Botswana

12:13 AM CAT on February 08, 2016 (GMT +0200)
Francistown

Weather History for FBFT - July, 2013

Change the Weather History Date:

Wednesday, July 31, 2013

  Actual Average Record
Temperature  
Mean Temperature 56 °F -  
Max Temperature 64 °F 79 °F 107 °F (1999)
Min Temperature 46 °F 48 °F 33 °F (2007)
Degree Days  
Heating Degree Days 9    
Growing Degree Days 6 (Base 50)    
Moisture  
Dew Point 46 °F    
Average Humidity 70    
Maximum Humidity 94    
Minimum Humidity 49    
Precipitation  
Precipitation 0.00 in - - ()
Sea Level Pressure  
Sea Level Pressure 30.45 in    
Wind  
Wind Speed 10 mph ()    
Max Wind Speed 18 mph    
Max Gust Speed -    
Visibility 6.2 miles    
Events      
Averages and records for this station are not official NWS values.
T = Trace of Precipitation, MM = Missing Value Source: Averaged Metar Reports

Daily Weather History Graph

Daily Weather History Graph

Search for Another Location

Airport or City:

Trip Planner

Search our weather history database for the weather conditions in past years. The results will help you decide how hot, cold, wet, or windy it might be!

Date:

Astronomy

Jul. 31, 2013 Rise Set
Actual Time 6:41 AM CAT 5:50 PM CAT
Civil Twilight 6:18 AM CAT 6:14 PM CAT
Nautical Twilight 5:51 AM CAT 6:41 PM CAT
Astronomical Twilight 5:25 AM CAT 7:07 PM CAT
Moon 1:21 AM CAT (7/31) 12:45 PM CAT (7/31)
Length of Visible Light 11h 55m
Length of Day
11h 09m
Waning Crescent, 34% of the Moon is Illuminated
Jul 31
Waning Crescent
Aug 6
New
Aug 14
First Quarter
Aug 21
Full
Aug 28
Last Quarter

Hourly Weather History & Observations

Time (CAT) Temp. Windchill Dew Point Humidity Pressure Visibility Wind Dir Wind Speed Gust Speed Precip Events Conditions
12:00 AM 55.4 °F - 50.0 °F 82% 30.48 in 6.2 mi East 11.5 mph - N/A   Scattered Clouds
1:00 AM 53.6 °F - 48.2 °F 82% 30.48 in 6.2 mi ESE 5.8 mph - N/A   Scattered Clouds
2:00 AM 50.0 °F - 46.4 °F 87% 30.45 in 6.2 mi ESE 6.9 mph - N/A   Scattered Clouds
3:00 AM 50.0 °F - 44.6 °F 82% 30.45 in 6.2 mi ESE 6.9 mph - N/A   Scattered Clouds
4:00 AM 48.2 °F - 42.8 °F 82% 30.45 in 6.2 mi East 12.7 mph - N/A   Scattered Clouds
5:00 AM 50.0 °F - 48.2 °F 94% 30.45 in 6.2 mi East 12.7 mph - N/A   Partly Cloudy
6:00 AM 50.0 °F - 46.4 °F 87% 30.45 in - ESE 12.7 mph - N/A   Clear
7:00 AM 50.0 °F - 46.4 °F 87% 30.45 in - East 10.4 mph - N/A   Clear
8:00 AM 51.8 °F - 46.4 °F 82% 30.48 in - East 11.5 mph - N/A   Clear
9:00 AM 57.2 °F - 48.2 °F 72% 30.51 in 6.2 mi ESE 18.4 mph - N/A   Scattered Clouds
10:00 AM 57.2 °F - 48.2 °F 72% 30.51 in 6.2 mi East 15.0 mph - N/A   Mostly Cloudy
11:00 AM 60.8 °F - 48.2 °F 63% 30.48 in 6.2 mi ESE 17.3 mph - N/A   Mostly Cloudy
12:00 PM 64.4 °F - 48.2 °F 56% 30.45 in 6.2 mi ESE 17.3 mph - N/A   Mostly Cloudy
1:00 PM 64.4 °F - 46.4 °F 52% 30.42 in 6.2 mi ESE 13.8 mph - N/A   Mostly Cloudy
2:00 PM 64.4 °F - 46.4 °F 52% 30.42 in 6.2 mi SE 15.0 mph - N/A   Mostly Cloudy
3:00 PM 64.4 °F - 46.4 °F 52% 30.39 in 6.2 mi East 11.5 mph - N/A   Scattered Clouds
4:00 PM 64.4 °F - 46.4 °F 52% 30.39 in 6.2 mi ESE 18.4 mph - N/A   Scattered Clouds
5:00 PM 64.4 °F - 44.6 °F 49% 30.39 in 6.2 mi East 12.7 mph - N/A   Scattered Clouds
7:00 PM 59.0 °F - 42.8 °F 55% 30.42 in - East 9.2 mph - N/A   Clear
8:00 PM 57.2 °F - 42.8 °F 59% 30.42 in - East 5.8 mph - N/A   Clear
9:00 PM 53.6 °F - 41.0 °F 62% 30.45 in - East 4.6 mph - N/A   Clear
10:00 PM 51.8 °F - 41.0 °F 67% 30.45 in - ESE 4.6 mph - N/A   Clear
11:00 PM 46.4 °F 43.5 °F 41.0 °F 81% 30.45 in - SE 5.8 mph - N/A   Clear